Location: Fort Worth, Tx
(32.7431°N, 97.3695°W)
Time: 08:50:20
(UTC-04:00)

Explorer 11/Cluster Stage 4 - Pass Details

Date: 30 January 2023
Orbit: 466 x 1241 km, 28.8° (Epoch: 02 April)

Event Time Altitude Azimuth Distance (km) Brightness Sun altitude
Exits shadow 07:25:18 - 235° (SW) 4,115 9.9 -13.0°
Reaches altitude 10° 07:28:18 10° 229° (SW) 3,190 9.3 -12.4°
Maximum altitude 07:35:52 43° 161° (SSE) 1,660 8.5 -10.8°
Drops below altitude 10° 07:43:05 10° 93° (E) 3,040 11.1 -9.4°
Sets 07:45:54 0° 87° (E) 3,915 11.8 -8.8°
